Lid_Strength_Index
3 3 3 3 3 3 3 3 3 2 2 1 1 0 1 1 2 4 7 4 4 1 2 7 5 6 6 9 6 4 9 11 9 9 7 6 6 5 4 5 4 4 4 3 2
3 3 3 4 4 3 3 3 3 3 3 2 1 1 0 1 3 6 3 1 1 1 7 9 8 7 9 10 7 8 10 9 7 6 7 6 6 5 5 6 6 5 4 3 2
3 3 3 3 3 3 3 3 3 3 3 3 2 1 1 1 6 6 1 2 1 1 6 8 7 7 10 10 9 8 10 8 6 6 5 6 6 4 6 7 5 5 5 4 4
2 3 3 3 3 3 3 3 3 3 3 3 2 2 1 3 11 4 0 2 1 3 6 9 8 8 8 13 10 11 9 9 7 6 6 6 5 6 5 5 3 3 3 4 4
1 2 2 2 2 3 3 3 3 4 3 3 3 2 4 7 6 2 1 2 4 4 7 9 10 9 10 11 12 11 9 8 8 7 6 6 6 6 6 4 4 3 4 4 4
-0 -0 0 1 1 2 2 3 3 3 3 3 3 3 6 11 3 2 3 3 4 5 6 9 11 9 9 9 13 11 10 9 9 8 7 7 7 6 5 4 4 4 4 4 4
-2 -1 -1 -1 -1 -0 0 1 2 2 3 3 3 4 7 9 3 3 3 3 3 5 7 7 9 10 10 12 9 11 12 11 9 9 9 7 9 8 5 4 5 5 4 4 4
-2 -2 -2 -2 -2 -2 -2 -1 0 1 2 3 3 5 10 4 3 4 3 3 2 3 4 5 8 8 10 10 12 13 12 13 10 9 9 8 11 8 5 5 5 5 4 4 4
-2 -2 -2 -2 -2 -2 -2 -2 -2 -1 -0 2 5 7 12 4 6 4 4 5 3 3 3 3 7 9 9 13 14 14 16 13 12 10 10 9 11 9 8 6 6 5 5 5 4
-2 -2 -2 -2 -2 -2 -2 -2 -2 -2 -1 1 3 10 8 9 6 3 3 4 4 4 4 5 8 11 12 14 18 16 15 12 13 12 11 11 11 9 9 8 6 5 5 5 5
-2 -2 -2 -2 -2 -2 -1 0 3 4 3 6 7 9 8 6 4 5 3 4 4 5 9 7 11 15 14 14 14 14 14 13 13 13 12 12 11 10 9 9 8 7 5 5 5
-2 -1 -1 -2 -1 -2 -1 3 3 2 7 4 5 5 4 5 9 7 3 7 7 10 8 10 12 11 11 12 13 14 15 15 15 13 13 13 12 10 9 9 8 8 7 6 4
-2 -2 -1 -1 -1 0 2 2 -1 0 8 6 5 6 5 5 8 8 5 6 9 10 10 11 11 9 11 12 13 14 15 16 15 14 14 15 14 13 11 11 10 8 7 7 6
-2 -1 -1 -1 2 1 2 0 -1 0 11 9 7 5 4 5 9 4 4 5 8 11 9 10 8 10 11 13 12 15 12 13 14 15 18 15 17 13 13 12 12 10 9 8 7
-2 -1 -1 -0 2 3 2 -0 -0 2 18 9 7 2 4 6 6 6 3 5 10 10 10 11 10 10 11 12 10 13 10 12 12 14 15 16 18 15 14 14 13 12 10 9 7
-1 -2 -2 0 1 1 -1 -1 2 12 18 12 8 9 8 7 7 5 6 4 6 10 9 10 7 8 9 10 9 9 10 11 12 14 18 16 17 17 15 14 13 12 11 11 10
-1 -2 -0 1 4 -0 -1 3 12 16 11 12 11 9 9 10 9 8 9 10 13 15 15 12 11 8 7 10 9 10 12 16 18 18 19 15 17 16 14 13 13 12 11 11 11
-2 -1 0 1 0 0 2 8 16 16 14 10 9 9 12 10 10 9 11 12 9 11 14 16 17 11 8 9 12 12 13 15 20 19 19 16 19 17 13 12 12 12 11 11 10
-1 1 2 1 0 1 5 13 14 13 10 10 9 12 13 11 10 11 11 12 11 10 14 15 15 9 8 7 8 12 14 12 15 17 16 16 15 13 12 12 12 12 11 11 11
2 3 4 1 1 4 8 12 12 9 9 9 12 11 14 13 12 12 12 11 11 10 11 12 16 11 9 7 8 9 9 16 14 19 19 17 17 16 14 13 12 11 11 11 9
2 6 3 -0 2 6 11 13 12 8 8 10 11 12 12 13 12 12 13 11 10 10 9 10 12 14 11 12 12 11 12 12 13 14 18 19 17 12 12 11 11 11 10 9 9
6 9 2 2 8 11 11 12 8 8 7 9 8 9 10 11 12 12 13 12 9 9 13 11 13 15 14 10 8 8 10 11 15 17 15 16 15 11 11 11 9 10 10 9 9
6 7 1 3 10 10 12 11 9 8 8 9 9 8 8 10 13 11 11 9 9 9 11 10 13 17 16 12 10 12 10 9 10 11 15 16 15 11 11 11 10 10 9 8 8
6 10 7 6 10 11 12 11 11 7 8 7 9 8 9 10 10 12 10 9 8 8 8 9 13 15 17 15 12 14 13 11 11 15 14 14 13 12 11 10 9 9 9 8 7
8 11 11 12 11 12 11 11 10 10 8 7 8 9 10 13 11 12 10 9 8 7 8 10 15 13 13 13 12 13 13 14 14 14 15 12 12 10 10 10 9 9 8 8 8
8 10 10 11 10 12 13 12 11 9 9 10 10 9 9 11 10 12 11 10 10 8 9 10 14 13 15 13 13 14 13 12 12 13 13 13 13 8 8 8 9 8 8 9 8
7 7 7 11 11 12 12 12 11 9 8 8 8 8 9 8 7 7 8 8 9 10 10 10 12 14 17 14 14 17 14 13 12 12 11 13 10 9 10 10 9 8 8 8 8